Vorticity
3 2 3 3 2 1 0 2 5 8 10 11 11 9 7 6 6 5 6 7 8 10 11 12 12 12 12 12 12 11 10 10 9 9 8 7 7 6 6 5 5 5 5 4 4 4 4 4 4 5 5 5 5 5 5 5 5 5 5 5 5 5 6 6 7 8 9 9 10 11 12 13 14 15 16 17 18 19 19 20 21 22 22 23 23 24
2 2 3 1 1 1 3 6 10 12 12 11 9 7 5 4 5 6 7 9 10 11 12 12 12 12 12 11 10 10 9 9 8 7 7 6 6 5 5 5 5 5 4 4 5 5 5 5 5 5 5 5 5 5 5 5 5 5 6 7 7 8 9 10 12 13 14 15 17 18 19 20 21 22 23 24 25 26 27 27 28 29 29 30 30 30
2 1 0 -1 1 3 7 10 12 13 11 9 6 4 3 3 5 7 9 11 12 12 12 12 11 11 11 10 9 8 8 7 7 6 6 6 5 5 5 5 5 5 5 5 5 5 5 5 5 5 5 5 5 5 6 6 7 8 9 11 12 14 15 17 18 20 21 22 23 24 25 26 27 28 29 30 31 31 32 32 33 33 33 34 34 34
2 0 -2 -0 4 9 12 13 12 11 9 6 4 3 3 5 7 9 10 11 11 12 12 11 10 10 9 8 8 7 7 6 6 6 5 5 5 5 5 5 5 5 5 5 5 5 5 5 5 5 5 6 6 7 9 10 12 14 16 18 19 21 23 24 25 26 27 28 29 30 30 31 31 32 32 33 34 34 34 35 35 35 35 35 35 35
2 1 0 4 9 13 15 13 10 7 4 3 3 4 6 8 10 11 12 12 12 11 10 10 9 9 8 7 7 6 6 6 5 5 5 5 5 5 5 6 6 6 5 5 5 5 5 5 6 7 7 9 11 13 15 17 19 21 23 25 27 28 29 30 30 31 31 32 32 33 33 33 33 33 34 34 34 34 34 34 34 34 33 33 33 33
4 5 7 11 13 14 12 10 6 4 2 3 5 7 9 11 11 12 12 12 11 10 10 9 8 8 7 7 6 6 5 5 5 5 5 6 6 6 6 6 5 5 5 5 5 6 7 8 9 11 13 15 17 20 22 24 26 28 29 30 31 32 32 33 33 33 33 33 33 33 33 33 32 32 32 31 31 30 30 30 29 29 29 29 28 28
9 12 14 15 14 11 7 5 3 3 4 5 8 10 12 12 12 12 12 11 10 9 9 8 7 7 6 6 6 6 5 6 6 6 6 6 6 6 5 5 5 5 6 7 8 9 11 13 15 18 20 23 25 27 29 30 31 32 33 33 33 33 33 33 33 33 32 32 32 31 30 29 28 27 27 26 25 25 24 24 23 23 23 23 23 23
14 17 17 14 10 7 4 3 4 5 7 9 10 11 12 12 12 12 11 10 9 8 7 7 7 6 6 6 6 6 6 6 6 6 6 6 5 5 5 5 6 7 9 11 13 16 18 21 23 25 28 30 31 33 33 34 34 34 34 33 33 33 32 31 31 30 29 28 27 26 25 24 23 22 22 21 20 20 19 19 18 18 18 19 19 19
16 15 12 8 4 3 4 6 8 9 11 12 12 12 12 11 11 10 9 9 8 7 7 6 6 6 6 6 6 6 7 6 6 6 5 5 5 5 6 8 10 13 16 19 21 24 26 28 30 32 33 34 34 35 34 34 34 33 33 31 30 29 28 26 25 24 23 22 21 21 20 20 19 19 19 18 18 18 17 17 16 16 16 16 17 17
13 8 5 4 3 4 6 8 10 11 13 13 13 12 11 10 9 8 8 8 7 7 6 6 6 6 7 7 7 7 6 6 5 5 4 5 6 8 10 14 17 20 24 26 29 30 32 33 33 34 35 35 34 34 33 32 30 29 27 26 24 22 21 20 19 18 17 17 17 16 16 17 17 17 18 18 18 18 17 17 17 16 16 16 16 17
7 4 2 4 6 9 11 11 11 11 12 12 12 11 10 9 8 7 7 7 6 6 7 7 7 7 7 7 6 6 5 5 5 5 6 8 11 15 18 22 25 28 31 32 33 34 34 34 34 34 33 32 31 29 28 26 23 21 19 18 17 15 14 14 13 13 13 13 13 13 14 14 15 16 17 17 18 18 18 18 18 18 17 17 17 17
3 4 5 8 10 12 13 13 12 11 11 10 10 9 9 8 7 7 7 7 6 6 7 7 7 7 6 6 5 5 4 5 6 8 11 15 19 23 27 30 32 34 35 35 35 34 33 32 31 30 29 27 24 22 19 17 15 14 12 11 11 10 10 10 10 10 10 10 10 11 11 12 13 14 15 16 17 18 19 19 19 19 18 18 18 18
5 7 9 11 12 12 12 11 11 11 10 9 8 8 7 7 7 7 7 7 7 7 7 7 7 6 5 4 4 5 5 7 10 13 18 23 28 31 32 33 34 35 35 34 33 31 29 27 25 23 20 17 15 13 11 10 9 9 8 8 8 8 8 8 8 8 9 9 9 10 10 11 12 12 14 15 16 17 18 19 20 20 19 19 19 19
9 11 13 13 13 12 11 10 9 9 8 8 7 7 6 6 6 7 7 8 8 7 7 6 6 5 4 5 6 8 9 12 16 21 28 32 34 35 34 33 33 32 31 29 26 24 20 17 15 13 11 9 8 8 7 7 7 7 7 7 7 8 8 8 8 9 9 9 10 10 10 11 12 12 13 14 15 16 18 19 20 20 20 20 20 20
11 12 13 12 11 10 9 9 8 8 7 7 7 7 7 7 7 7 8 8 8 7 6 6 5 5 6 8 11 13 16 18 23 28 34 36 37 36 33 31 29 27 25 21 17 14 10 9 7 6 6 6 6 6 7 7 7 8 8 8 9 9 9 10 10 10 11 11 11 12 12 12 13 13 14 14 15 16 17 18 19 20 21 21 21 21
12 11 11 10 9 8 8 8 7 7 7 7 7 7 7 7 8 8 8 7 7 6 5 4 5 7 11 15 19 21 23 26 30 33 35 36 35 33 29 25 23 20 16 12 9 7 5 4 4 5 5 6 7 7 8 9 9 10 10 11 11 11 12 12 13 13 13 14 14 14 14 15 15 15 15 16 16 16 17 18 19 20 21 21 21 22
11 10 9 8 8 8 7 7 7 7 6 7 7 7 7 8 8 8 7 6 6 5 5 5 7 11 17 21 27 31 30 31 33 35 37 34 30 27 22 18 15 12 8 6 4 3 3 4 5 6 7 8 9 10 11 11 12 13 13 14 14 15 15 16 16 16 16 17 17 17 17 17 17 17 17 17 17 17 17 18 19 20 20 21 21 22
10 9 8 8 7 7 7 7 7 7 7 7 8 8 8 8 8 7 6 5 5 5 7 10 14 19 22 25 28 31 33 33 33 33 34 29 23 17 12 10 7 5 3 3 3 3 4 6 7 9 10 11 12 13 14 14 15 16 16 17 17 18 18 18 18 18 18 18 18 18 18 18 18 18 18 17 17 17 17 18 18 19 20 20 21 22
9 8 7 7 7 7 6 7 7 7 8 8 8 8 8 8 7 6 5 5 6 8 11 16 22 28 34 34 32 31 34 33 31 29 28 21 14 8 4 2 1 2 2 4 5 7 9 11 13 14 16 16 17 17 17 18 18 18 18 18 19 19 19 19 18 18 18 18 18 18 18 18 17 17 17 17 17 17 17 17 18 18 19 20 20 21
7 7 7 7 7 7 7 7 8 8 8 8 8 7 7 6 5 5 6 8 11 15 19 24 30 35 39 37 34 32 33 29 25 21 16 10 5 2 1 1 2 5 7 10 12 15 17 19 21 22 23 23 22 22 21 21 20 20 19 19 19 18 18 17 17 17 17 16 16 16 16 16 16 16 16 16 16 15 15 16 17 17 18 19 19 20
7 7 7 7 7 7 8 8 8 8 8 8 8 7 6 5 5 7 10 13 17 22 28 34 37 38 36 34 32 28 23 19 14 10 6 3 2 2 4 7 10 14 18 21 23 25 27 28 28 28 28 27 25 24 23 22 21 21 20 19 18 18 17 16 16 16 15 15 15 15 15 15 15 15 15 14 14 14 14 15 15 16 17 18 18 19
7 7 7 7 8 8 8 8 9 9 9 8 7 6 6 6 9 12 16 20 24 29 34 38 37 35 34 32 26 19 13 8 5 3 2 3 6 10 14 18 21 25 28 30 30 31 31 31 31 30 29 27 26 24 23 22 21 20 20 19 18 17 16 16 15 15 15 14 14 14 15 15 15 14 14 13 13 13 13 14 15 16 16 17 18 18
7 7 7 8 8 9 9 9 9 9 8 7 6 6 6 9 13 17 21 25 29 32 36 36 35 33 31 23 15 8 2 2 2 3 6 10 15 20 24 27 29 31 32 32 31 30 30 30 29 28 27 26 25 24 23 22 21 20 20 19 18 17 16 16 15 15 15 14 14 14 14 14 14 14 14 13 13 12 12 13 14 15 16 17 17 18
7 8 8 8 9 9 9 9 9 8 6 5 5 7 10 15 21 25 28 31 33 35 35 33 31 26 19 11 6 3 2 4 6 10 13 19 24 27 29 30 30 30 30 29 28 27 27 27 27 26 25 25 24 23 23 22 21 21 20 19 18 17 16 16 15 15 15 15 15 14 14 14 14 14 14 13 13 12 12 13 14 15 16 17 17 18
8 8 8 8 9 9 9 8 7 6 4 5 8 12 18 24 29 33 35 38 38 37 33 29 24 18 10 6 4 4 6 9 13 17 21 25 28 29 29 28 27 26 26 25 24 24 25 26 26 26 26 25 25 24 24 23 22 22 21 20 19 17 16 16 15 15 15 15 15 15 15 14 14 14 14 13 13 12 12 13 14 16 16 17 17 17
9 9 9 9 9 8 8 6 5 5 6 10 15 20 25 29 32 35 39 40 36 31 27 23 16 10 5 4 5 8 11 15 19 22 25 26 26 26 25 24 23 23 22 22 22 23 24 26 26 27 28 29 29 28 27 25 24 23 22 20 19 18 17 16 16 15 15 15 15 15 15 14 14 14 14 13 13 12 12 13 14 16 17 17 17 17
9 9 9 8 8 7 6 5 6 8 12 18 24 28 32 33 34 37 39 34 28 23 19 14 8 4 3 5 9 13 17 20 22 23 23 22 22 22 21 20 20 19 19 20 21 23 24 25 26 27 30 32 33 33 32 30 27 25 23 21 20 19 18 17 16 15 15 15 15 14 15 15 15 15 14 14 13 12 12 13 15 16 18 18 18 17
8 8 8 7 6 5 5 7 10 15 21 26 31 34 37 36 37 36 33 25 19 15 11 7 4 3 5 10 14 19 21 21 21 20 18 18 19 19 18 18 17 17 17 18 21 23 25 24 24 25 28 31 34 36 36 34 31 28 25 23 21 19 17 16 15 15 15 14 14 15 15 16 16 16 16 15 14 13 13 14 15 17 19 19 18 17
7 7 6 5 5 6 8 13 18 24 30 33 36 38 39 38 36 32 24 17 12 9 5 3 4 6 10 15 19 22 22 20 18 16 15 16 17 17 16 16 16 16 15 17 19 23 26 24 22 21 23 27 31 35 38 37 36 33 30 27 23 20 18 16 15 15 14 15 15 16 17 17 18 18 18 17 15 14 14 15 16 18 20 19 18 17
7 6 6 7 8 11 16 22 28 33 36 38 39 39 39 36 31 24 15 10 7 4 3 4 6 10 15 19 22 22 20 17 15 13 13 14 15 15 14 15 16 16 15 15 17 21 25 23 21 19 19 22 26 30 34 37 39 39 37 33 29 25 21 19 17 17 16 17 17 18 19 20 20 20 20 18 17 16 15 17 18 20 21 20 19 18
6 7 8 11 16 21 27 32 36 39 41 41 40 37 33 26 19 12 7 5 4 4 4 7 10 15 19 22 21 19 16 14 13 12 12 13 14 14 13 14 15 16 16 15 16 18 21 21 20 19 18 19 21 24 27 31 36 39 41 40 37 32 28 25 23 22 21 21 21 22 22 22 22 22 21 19 18 18 18 19 20 22 22 21 20 18
8 11 15 19 25 31 36 40 42 42 42 40 36 29 21 14 8 5 4 4 4 5 7 10 14 18 22 21 19 16 13 12 11 11 12 13 13 13 13 13 14 15 16 17 17 17 18 18 18 18 18 18 17 18 20 24 28 32 36 38 39 37 34 31 29 28 27 26 25 25 24 24 23 22 21 20 20 20 20 21 22 22 23 21 20 18
15 20 25 30 35 40 43 44 43 42 38 32 25 17 9 6 4 4 4 5 5 7 9 14 18 20 21 19 16 14 12 12 11 11 11 12 12 12 11 12 13 13 14 16 17 18 18 18 17 17 19 18 16 15 15 17 20 23 26 30 32 33 32 31 30 29 28 27 26 24 23 22 21 21 21 21 21 22 22 22 22 22 22 21 19 18
26 31 35 39 43 45 45 44 40 35 29 20 13 7 4 4 4 5 5 6 7 9 13 17 19 20 19 16 14 12 11 11 11 11 11 11 11 11 11 11 12 12 13 14 16 17 19 18 18 18 19 18 17 15 13 14 15 17 19 21 23 24 25 25 26 25 25 24 23 22 21 20 20 21 21 21 22 22 22 21 21 20 20 19 18 18
37 41 44 46 46 45 42 37 31 23 15 9 5 4 4 5 6 6 6 7 9 12 16 19 20 19 17 14 12 11 11 11 11 10 10 11 11 11 11 11 11 11 12 13 14 15 17 18 19 19 18 18 17 16 15 14 14 14 15 17 18 18 19 20 21 21 21 21 21 20 20 20 20 20 20 19 19 19 18 18 17 17 17 16 16 16
45 48 49 48 44 40 34 26 18 11 6 4 4 5 6 6 6 6 6 9 12 15 19 20 20 17 15 13 11 11 11 10 10 10 10 10 10 11 11 11 11 10 11 11 12 14 16 18 19 20 20 18 16 14 15 15 15 15 15 15 16 16 16 16 17 18 19 19 19 18 18 17 17 16 16 15 15 15 14 14 14 14 14 14 15 15
50 50 48 43 37 29 21 14 8 5 4 4 5 6 7 6 6 6 8 11 15 18 20 20 18 15 13 12 12 11 11 10 10 9 10 10 10 11 11 11 10 10 10 10 10 12 14 17 19 21 22 20 17 14 12 14 16 18 18 16 15 14 14 15 16 17 18 18 18 17 16 16 15 15 14 14 14 14 14 14 15 15 16 17 17 18
49 45 39 31 24 16 10 6 4 4 5 6 7 7 6 6 6 8 10 14 17 19 20 18 16 14 12 12 12 12 12 11 10 9 9 10 10 10 11 11 10 10 10 10 9 10 11 14 18 20 22 22 19 16 13 13 15 18 18 17 15 13 12 13 15 17 19 19 19 18 18 18 18 17 17 17 18 18 19 19 20 21 22 23 23 23
41 34 25 17 11 7 4 3 4 5 6 7 7 6 6 6 7 10 13 16 19 20 19 17 14 12 12 12 13 13 12 11 10 9 9 9 10 10 10 10 10 10 10 10 9 9 9 12 15 18 21 21 19 18 15 15 16 17 16 16 15 14 11 11 14 16 19 20 20 20 20 20 21 21 22 22 23 24 24 25 25 26 27 27 26 25
26 19 11 7 4 3 3 4 5 7 7 7 7 6 5 6 9 12 16 18 20 20 18 15 13 11 11 12 13 13 12 11 10 9 9 9 9 10 10 10 10 10 10 10 10 10 9 10 13 15 18 20 19 18 16 16 16 15 14 15 14 13 9 10 11 14 16 18 20 21 23 23 24 25 25 26 27 27 28 27 26 26 26 26 26 26
12 8 4 3 3 4 5 6 7 7 8 7 6 6 6 8 10 14 17 20 21 20 17 15 13 12 12 13 13 13 12 11 10 9 9 9 9 9 10 10 10 10 9 10 10 10 10 10 11 13 15 17 18 19 18 17 15 13 14 16 15 12 9 10 10 11 13 15 18 20 21 22 23 24 25 26 26 26 26 24 23 22 22 22 22 23
5 3 3 3 4 5 6 7 8 8 7 7 6 6 6 8 11 15 18 20 20 19 16 14 12 11 11 13 14 14 14 12 11 10 9 9 9 9 9 9 9 9 9 9 10 10 10 10 11 12 13 15 16 17 18 17 15 14 14 14 13 12 12 12 11 11 11 12 13 14 15 16 16 17 19 20 21 21 20 18 18 18 19 20 21 22
3 3 4 5 6 7 7 8 8 8 7 7 6 6 7 9 12 16 19 20 19 17 15 13 12 10 10 11 12 13 13 12 11 10 10 10 9 9 10 10 10 9 9 9 10 10 10 10 10 11 12 14 15 15 15 15 15 15 15 13 12 11 12 10 9 9 10 10 9 10 10 11 11 12 13 14 15 16 16 16 16 16 16 17 18 19
3 4 5 6 7 7 8 8 8 8 8 7 7 7 8 10 13 16 19 20 19 17 15 13 11 11 10 10 10 11 11 11 11 11 10 10 10 10 11 11 11 11 10 10 9 9 8 9 9 9 10 11 12 13 14 15 15 15 15 14 14 14 14 8 6 8 10 9 8 8 8 10 11 11 11 11 12 12 13 14 15 15 15 15 15 15
5 5 6 7 7 8 8 8 8 8 8 7 7 7 8 11 14 17 19 19 19 17 15 13 12 11 11 10 10 10 10 10 11 11 11 11 11 11 12 13 13 13 12 12 11 9 8 8 8 8 8 8 8 9 10 12 14 15 15 15 16 16 15 12 11 11 11 10 9 9 9 11 12 13 13 12 11 11 11 12 13 13 14 14 14 14
6 6 7 7 7 8 8 8 9 9 9 8 7 7 8 11 14 17 19 19 18 17 15 14 12 11 11 10 9 9 9 10 10 10 11 11 11 12 14 15 15 15 14 13 12 11 10 8 7 6 7 7 6 5 5 8 10 12 14 14 14 14 13 12 12 12 12 11 11 11 12 14 16 16 16 15 14 13 11 10 10 10 11 12 13 13
6 6 7 7 7 8 9 9 9 9 9 8 7 7 8 11 14 17 18 19 18 17 16 14 13 12 11 11 10 9 9 9 9 9 10 11 12 13 15 16 17 17 16 14 13 12 11 9 7 6 5 5 5 4 3 4 5 7 10 11 12 12 12 12 11 11 11 11 10 11 13 16 17 18 19 20 19 17 14 12 10 9 9 10 11 12
6 6 7 7 8 9 10 10 10 10 9 8 7 8 9 11 14 16 17 18 18 17 16 14 13 13 12 11 11 10 10 9 9 9 9 10 12 13 15 17 17 17 17 15 14 12 11 9 8 6 4 3 4 4 4 4 4 5 6 8 9 10 11 12 12 12 11 10 9 9 11 15 16 18 21 21 21 19 17 15 13 11 11 12 13 14
6 6 7 8 9 10 11 11 11 10 9 8 7 7 9 11 13 15 16 17 17 17 16 15 14 13 12 12 11 11 10 10 9 9 9 10 12 14 16 17 17 17 17 16 14 13 11 10 8 6 4 2 2 2 4 5 6 6 7 8 9 11 13 14 15 15 13 12 10 9 10 11 13 15 17 18 18 18 18 16 15 14 14 16 17 18
6 7 8 9 10 11 12 12 11 10 8 7 7 7 8 10 12 14 15 16 17 16 16 15 14 13 13 12 11 11 10 10 9 9 9 11 13 15 16 17 17 17 17 16 14 12 10 9 8 7 6 4 2 1 3 5 7 9 10 10 11 13 16 18 19 18 17 15 13 11 11 11 11 12 13 13 14 15 15 15 14 14 15 17 19 20
7 8 9 11 12 12 13 12 11 10 8 7 7 7 7 9 11 13 14 15 16 16 16 15 15 14 13 13 12 11 11 10 10 9 10 11 13 15 17 17 17 16 16 15 14 12 10 8 6 5 6 6 5 3 3 5 8 11 13 14 16 18 20 21 22 22 20 18 16 14 13 12 12 12 12 13 13 13 14 13 13 13 14 15 15 16
Height
5647 5645 5643 5642 5640 5638 5635 5634 5632 5630 5627 5625 5624 5622 5619 5617 5615 5613 5611 5609 5607 5605 5603 5600 5599 5596 5594 5592 5590 5589 5587 5585 5583 5581 5580 5578 5577 5575 5573 5572 5570 5569 5567 5565 5564 5562 5560 5559 5557 5555 5553 5552 5550 5548 5546 5544 5542 5540 5538 5536 5535 5533 5531 5530 5528 5526 5524 5523 5521 5520 5518 5517 5515 5514 5513 5512 5511 5510 5508 5507 5506 5505 5504 5503 5502 5501
5642 5640 5638 5637 5635 5633 5630 5628 5626 5625 5622 5620 5619 5617 5615 5612 5610 5608 5605 5603 5601 5599 5597 5595 5592 5590 5588 5586 5584 5582 5580 5578 5576 5575 5573 5571 5569 5568 5566 5564 5562 5561 5559 5557 5555 5554 5552 5550 5548 5546 5544 5542 5540 5538 5536 5534 5532 5530 5528 5526 5524 5522 5520 5519 5517 5515 5514 5512 5510 5509 5507 5506 5504 5503 5502 5500 5500 5498 5497 5496 5495 5494 5493 5492 5491 5491
5637 5635 5633 5632 5630 5628 5625 5623 5620 5619 5617 5615 5613 5611 5609 5607 5605 5602 5600 5598 5595 5593 5591 5589 5586 5584 5582 5580 5578 5575 5573 5571 5570 5568 5566 5564 5562 5560 5558 5556 5555 5553 5551 5549 5547 5545 5543 5541 5539 5537 5535 5533 5530 5528 5526 5524 5522 5520 5518 5515 5514 5512 5510 5508 5506 5504 5502 5500 5499 5497 5496 5495 5493 5492 5491 5490 5489 5488 5487 5486 5485 5484 5483 5482 5482 5481
5633 5630 5628 5627 5625 5622 5620 5618 5615 5613 5612 5610 5608 5605 5604 5602 5600 5597 5595 5593 5590 5588 5585 5583 5581 5578 5576 5574 5571 5569 5567 5565 5563 5561 5559 5557 5555 5553 5550 5548 5546 5544 5542 5540 5538 5536 5534 5531 5529 5527 5525 5523 5520 5518 5516 5514 5511 5509 5507 5505 5503 5500 5499 5497 5495 5493 5491 5490 5488 5487 5485 5484 5483 5482 5481 5480 5479 5478 5477 5476 5475 5474 5474 5473 5473 5472
5628 5626 5623 5621 5619 5617 5614 5612 5610 5608 5606 5604 5602 5600 5598 5596 5594 5592 5590 5587 5585 5582 5580 5577 5575 5572 5570 5567 5565 5563 5560 5558 5556 5554 5552 5550 5547 5545 5543 5540 5538 5536 5533 5531 5529 5526 5524 5521 5519 5517 5515 5512 5510 5508 5505 5503 5500 5498 5496 5494 5492 5490 5488 5486 5485 5483 5481 5480 5478 5477 5476 5475 5474 5473 5472 5471 5470 5469 5468 5467 5466 5466 5465 5465 5464 5464
5622 5620 5618 5615 5614 5611 5609 5607 5605 5602 5600 5598 5596 5594 5592 5590 5588 5586 5584 5582 5580 5577 5574 5572 5569 5566 5564 5561 5558 5556 5554 5552 5549 5547 5545 5542 5540 5537 5535 5532 5530 5527 5525 5522 5519 5516 5514 5511 5509 5507 5504 5502 5500 5497 5495 5492 5490 5488 5486 5484 5482 5480 5478 5477 5475 5474 5472 5471 5470 5468 5467 5466 5465 5464 5463 5462 5462 5461 5460 5460 5459 5458 5458 5457 5457 5456
5616 5614 5612 5610 5608 5606 5604 5601 5599 5596 5595 5593 5590 5589 5586 5585 5583 5581 5578 5576 5574 5571 5569 5566 5563 5560 5557 5554 5551 5549 5547 5545 5543 5540 5538 5535 5532 5530 5526 5524 5521 5518 5515 5512 5510 5507 5504 5501 5499 5496 5494 5492 5489 5487 5485 5482 5480 5478 5476 5475 5473 5471 5470 5468 5467 5465 5464 5463 5462 5461 5460 5459 5458 5457 5456 5455 5455 5454 5453 5452 5452 5451 5451 5450 5450 5450
5610 5608 5607 5605 5603 5600 5598 5595 5593 5591 5589 5587 5585 5583 5581 5579 5577 5575 5573 5570 5568 5565 5563 5560 5557 5554 5550 5547 5545 5542 5540 5538 5535 5533 5530 5527 5525 5521 5518 5515 5512 5509 5506 5503 5500 5497 5494 5491 5489 5486 5484 5482 5479 5477 5475 5473 5471 5469 5468 5466 5464 5463 5462 5460 5459 5458 5457 5456 5455 5454 5453 5452 5451 5450 5449 5448 5448 5447 5446 5446 5445 5445 5445 5444 5444 5444
5605 5603 5601 5599 5598 5595 5592 5590 5587 5585 5583 5581 5579 5577 5576 5574 5572 5570 5568 5565 5562 5559 5557 5554 5551 5547 5544 5540 5537 5535 5532 5530 5528 5526 5523 5520 5516 5513 5510 5507 5503 5500 5496 5493 5490 5487 5484 5481 5479 5476 5475 5472 5470 5468 5466 5464 5463 5461 5460 5458 5457 5455 5455 5454 5452 5451 5450 5450 5449 5448 5447 5446 5445 5444 5443 5442 5441 5440 5440 5439 5439 5439 5439 5438 5438 5437
5600 5598 5595 5593 5591 5590 5587 5584 5581 5579 5577 5575 5573 5571 5570 5568 5566 5564 5562 5560 5557 5554 5550 5548 5545 5541 5537 5533 5530 5528 5525 5523 5520 5518 5515 5512 5509 5505 5501 5498 5495 5491 5487 5484 5480 5477 5474 5472 5470 5468 5465 5464 5461 5460 5458 5456 5455 5454 5452 5451 5450 5449 5448 5447 5446 5445 5444 5443 5443 5442 5441 5440 5439 5438 5437 5436 5435 5434 5434 5433 5433 5433 5432 5432 5432 5431
5594 5592 5590 5588 5585 5583 5581 5579 5576 5573 5571 5569 5567 5565 5563 5562 5561 5559 5556 5554 5551 5548 5545 5541 5539 5535 5532 5527 5523 5520 5518 5516 5513 5510 5507 5504 5500 5497 5493 5489 5486 5482 5479 5475 5472 5468 5466 5464 5462 5460 5458 5456 5454 5452 5450 5449 5448 5447 5445 5444 5443 5442 5441 5441 5440 5439 5438 5437 5436 5436 5435 5434 5433 5432 5431 5430 5429 5428 5428 5427 5427 5426 5426 5426 5425 5425
5588 5586 5584 5582 5580 5577 5575 5573 5570 5568 5566 5564 5562 5560 5557 5555 5554 5553 5550 5548 5545 5543 5540 5536 5532 5528 5525 5521 5517 5513 5510 5508 5506 5503 5499 5495 5491 5488 5484 5481 5477 5474 5471 5467 5464 5460 5458 5456 5455 5452 5450 5449 5447 5445 5443 5442 5441 5440 5439 5438 5437 5436 5435 5435 5434 5433 5432 5431 5430 5430 5429 5428 5427 5426 5425 5424 5423 5423 5422 5421 5421 5420 5420 5420 5420 5419
5582 5580 5579 5576 5574 5572 5570 5567 5565 5563 5561 5559 5557 5555 5552 5550 5548 5546 5544 5541 5539 5537 5534 5530 5526 5522 5518 5513 5509 5506 5504 5501 5499 5496 5492 5488 5484 5480 5477 5474 5470 5466 5463 5461 5457 5453 5451 5450 5448 5445 5443 5442 5440 5438 5436 5435 5434 5433 5432 5431 5430 5429 5429 5428 5427 5426 5426 5425 5424 5423 5423 5422 5421 5420 5419 5418 5418 5417 5416 5415 5415 5414 5414 5414 5414 5413
5577 5575 5573 5570 5568 5566 5564 5562 5560 5557 5555 5553 5551 5549 5547 5544 5542 5540 5538 5535 5532 5530 5527 5525 5521 5516 5511 5506 5501 5498 5496 5494 5492 5489 5486 5481 5476 5472 5470 5468 5464 5460 5457 5455 5452 5448 5445 5444 5442 5440 5437 5435 5433 5431 5430 5428 5427 5426 5425 5424 5423 5422 5421 5421 5420 5420 5419 5418 5418 5417 5416 5415 5415 5414 5413 5413 5412 5411 5410 5410 5409 5408 5408 5408 5408 5407
5572 5570 5567 5565 5563 5561 5559 5557 5554 5552 5549 5547 5545 5544 5541 5538 5535 5534 5531 5528 5525 5523 5520 5518 5514 5510 5505 5499 5495 5491 5489 5486 5485 5482 5480 5475 5470 5465 5463 5462 5459 5455 5452 5450 5447 5444 5440 5439 5437 5434 5431 5429 5426 5424 5423 5421 5420 5419 5417 5416 5415 5415 5414 5414 5413 5413 5412 5412 5411 5410 5410 5409 5409 5408 5407 5407 5406 5405 5405 5404 5403 5403 5402 5402 5402 5402
5566 5564 5562 5560 5557 5555 5553 5551 5549 5546 5544 5542 5540 5538 5535 5532 5529 5527 5525 5522 5519 5516 5513 5510 5507 5504 5498 5491 5486 5483 5482 5480 5478 5475 5474 5471 5465 5460 5457 5456 5455 5451 5448 5445 5443 5439 5436 5434 5431 5429 5426 5423 5420 5418 5415 5414 5412 5411 5410 5409 5408 5407 5407 5406 5405 5405 5405 5404 5404 5403 5403 5403 5402 5402 5401 5401 5400 5399 5399 5398 5398 5397 5397 5396 5396 5396
5561 5559 5556 5554 5552 5550 5548 5545 5543 5541 5538 5536 5534 5531 5529 5526 5524 5520 5518 5515 5512 5509 5506 5503 5500 5497 5493 5486 5479 5474 5473 5474 5472 5469 5467 5465 5461 5455 5452 5451 5450 5447 5444 5441 5438 5435 5432 5429 5426 5423 5420 5416 5414 5411 5409 5406 5405 5404 5402 5401 5400 5400 5399 5398 5398 5398 5397 5397 5397 5396 5396 5396 5396 5395 5395 5395 5394 5394 5393 5392 5392 5391 5391 5391 5391 5390
5555 5553 5551 5548 5546 5544 5542 5540 5537 5535 5532 5530 5528 5525 5523 5520 5517 5515 5511 5508 5505 5502 5499 5495 5492 5489 5486 5482 5475 5469 5466 5467 5466 5464 5462 5460 5456 5452 5448 5447 5445 5443 5440 5436 5433 5430 5427 5424 5421 5417 5414 5410 5407 5404 5401 5400 5398 5396 5395 5394 5393 5392 5391 5391 5390 5390 5390 5390 5390 5390 5390 5389 5389 5389 5389 5388 5388 5388 5387 5387 5386 5386 5385 5385 5385 5385
5549 5547 5545 5543 5540 5538 5536 5534 5531 5529 5526 5524 5522 5520 5517 5514 5510 5508 5505 5501 5498 5495 5492 5489 5485 5481 5478 5475 5470 5464 5461 5461 5460 5459 5457 5456 5453 5448 5444 5443 5440 5438 5435 5432 5428 5425 5421 5418 5415 5411 5408 5404 5400 5397 5395 5392 5391 5389 5388 5387 5386 5385 5384 5384 5383 5383 5383 5383 5383 5383 5383 5383 5383 5383 5383 5382 5382 5382 5382 5381 5381 5380 5380 5380 5380 5380
5544 5541 5539 5537 5535 5532 5530 5527 5525 5523 5520 5518 5515 5513 5511 5508 5505 5501 5498 5495 5492 5489 5485 5483 5479 5475 5471 5468 5464 5459 5456 5456 5455 5454 5453 5452 5450 5445 5441 5439 5436 5434 5430 5427 5423 5419 5416 5412 5409 5405 5401 5397 5393 5390 5387 5385 5384 5382 5381 5380 5379 5378 5377 5377 5376 5376 5376 5376 5376 5377 5377 5377 5377 5377 5377 5377 5377 5376 5376 5376 5375 5375 5375 5375 5375 5375
5538 5535 5533 5531 5530 5527 5524 5521 5519 5516 5514 5511 5509 5506 5504 5501 5499 5495 5491 5489 5485 5482 5479 5476 5473 5469 5466 5463 5459 5455 5451 5451 5451 5450 5449 5448 5445 5441 5437 5434 5431 5429 5425 5421 5417 5413 5410 5406 5402 5399 5395 5390 5386 5383 5380 5378 5377 5375 5374 5373 5372 5371 5371 5370 5370 5370 5370 5370 5370 5370 5371 5371 5371 5371 5371 5371 5371 5371 5371 5371 5370 5370 5370 5370 5370 5370
5532 5530 5527 5525 5523 5521 5519 5516 5512 5510 5507 5505 5502 5500 5497 5495 5492 5489 5485 5482 5480 5477 5474 5470 5467 5464 5461 5458 5454 5450 5447 5446 5446 5446 5445 5443 5440 5437 5432 5429 5425 5422 5419 5415 5411 5407 5404 5400 5396 5392 5389 5385 5380 5377 5374 5372 5370 5369 5367 5366 5366 5365 5365 5364 5364 5364 5364 5364 5364 5365 5365 5365 5365 5366 5366 5366 5366 5366 5366 5366 5365 5365 5365 5365 5365 5365
5527 5525 5522 5519 5517 5515 5513 5510 5507 5503 5500 5498 5496 5493 5491 5489 5486 5483 5479 5476 5474 5471 5469 5466 5463 5459 5456 5454 5450 5447 5443 5441 5440 5440 5439 5437 5435 5431 5427 5423 5419 5416 5413 5410 5405 5401 5398 5394 5391 5387 5383 5379 5375 5371 5368 5365 5364 5362 5361 5360 5359 5359 5358 5358 5358 5358 5358 5358 5359 5359 5360 5360 5360 5360 5361 5361 5361 5361 5361 5361 5361 5361 5361 5361 5361 5361
5521 5519 5516 5514 5511 5509 5506 5504 5500 5497 5495 5492 5489 5487 5484 5482 5479 5476 5473 5470 5468 5466 5464 5461 5459 5456 5452 5450 5447 5443 5438 5436 5435 5434 5433 5431 5429 5425 5421 5417 5414 5410 5408 5404 5400 5396 5392 5389 5385 5382 5378 5374 5370 5366 5363 5360 5358 5356 5355 5354 5353 5353 5352 5352 5352 5352 5352 5353 5353 5354 5354 5355 5355 5355 5355 5356 5356 5356 5356 5356 5356 5356 5356 5356 5356 5356
5515 5513 5510 5508 5505 5503 5500 5498 5495 5492 5489 5487 5484 5481 5478 5475 5473 5470 5467 5465 5463 5461 5459 5457 5455 5452 5449 5446 5443 5439 5434 5431 5430 5429 5427 5425 5423 5420 5416 5412 5408 5405 5402 5399 5395 5391 5387 5384 5380 5377 5373 5369 5365 5362 5358 5355 5353 5351 5349 5348 5347 5347 5346 5346 5346 5346 5347 5347 5348 5348 5349 5350 5350 5350 5350 5351 5351 5351 5351 5351 5351 5352 5352 5352 5352 5352
5509 5507 5505 5502 5500 5497 5495 5492 5489 5486 5483 5480 5478 5475 5473 5470 5467 5465 5462 5459 5458 5456 5454 5452 5450 5447 5445 5442 5439 5435 5430 5426 5425 5424 5423 5420 5417 5414 5411 5407 5404 5401 5398 5395 5391 5387 5383 5379 5376 5372 5369 5365 5361 5358 5354 5351 5348 5346 5344 5343 5342 5341 5341 5341 5341 5341 5341 5342 5343 5343 5344 5345 5345 5345 5346 5346 5347 5347 5347 5347 5347 5347 5347 5348 5348 5349
5503 5501 5499 5496 5494 5491 5489 5486 5483 5480 5477 5475 5472 5470 5468 5465 5463 5460 5457 5455 5454 5452 5450 5448 5446 5443 5441 5438 5435 5431 5427 5423 5421 5420 5418 5416 5413 5410 5406 5403 5400 5397 5394 5391 5387 5383 5379 5375 5371 5368 5365 5361 5357 5354 5350 5347 5344 5342 5340 5338 5337 5336 5336 5336 5336 5336 5336 5337 5338 5338 5339 5340 5340 5341 5341 5342 5342 5342 5343 5343 5343 5343 5343 5344 5344 5345
5497 5495 5493 5490 5488 5485 5483 5480 5477 5475 5472 5469 5467 5465 5462 5461 5459 5457 5454 5451 5450 5448 5446 5444 5442 5440 5437 5435 5431 5427 5423 5420 5418 5416 5415 5412 5409 5406 5403 5400 5396 5393 5390 5387 5385 5381 5376 5372 5368 5364 5361 5357 5354 5350 5347 5344 5341 5338 5336 5335 5333 5332 5332 5331 5331 5331 5331 5332 5333 5334 5335 5335 5336 5337 5337 5338 5338 5338 5338 5338 5339 5339 5339 5340 5340 5341
5491 5489 5487 5485 5482 5480 5477 5475 5472 5469 5467 5464 5462 5460 5457 5456 5455 5453 5450 5448 5446 5445 5442 5440 5438 5436 5434 5431 5428 5424 5420 5417 5415 5413 5411 5409 5406 5403 5400 5396 5393 5390 5387 5384 5382 5379 5375 5370 5365 5361 5358 5355 5351 5348 5344 5341 5338 5335 5333 5332 5330 5329 5328 5327 5327 5327 5327 5328 5329 5330 5330 5331 5332 5332 5333 5334 5334 5334 5334 5334 5334 5335 5335 5336 5336 5337
5485 5483 5481 5479 5476 5474 5472 5469 5466 5464 5462 5459 5457 5455 5453 5451 5450 5449 5446 5445 5443 5441 5439 5436 5434 5432 5430 5427 5424 5421 5417 5414 5412 5410 5409 5406 5403 5400 5397 5394 5390 5387 5384 5381 5379 5376 5373 5369 5363 5359 5355 5352 5349 5345 5342 5339 5336 5333 5331 5330 5328 5326 5325 5324 5324 5324 5324 5325 5325 5326 5327 5327 5328 5328 5329 5329 5330 5330 5330 5330 5330 5330 5331 5332 5333 5333
5478 5476 5475 5472 5470 5468 5466 5464 5461 5459 5457 5455 5453 5451 5449 5447 5446 5444 5443 5441 5440 5438 5435 5433 5430 5428 5425 5423 5421 5418 5415 5412 5410 5407 5406 5403 5400 5398 5395 5391 5388 5384 5381 5378 5375 5373 5370 5367 5363 5358 5353 5350 5346 5343 5340 5337 5334 5332 5330 5328 5326 5325 5324 5322 5322 5321 5322 5322 5322 5323 5323 5324 5324 5325 5325 5325 5325 5326 5326 5326 5326 5326 5327 5328 5329 5330
5472 5470 5468 5466 5464 5462 5460 5458 5456 5454 5452 5450 5449 5447 5445 5444 5442 5441 5439 5437 5435 5434 5431 5429 5426 5424 5422 5420 5417 5415 5412 5410 5407 5405 5403 5401 5398 5395 5392 5389 5385 5382 5379 5376 5373 5370 5367 5365 5361 5358 5353 5349 5345 5341 5338 5335 5333 5330 5328 5327 5325 5324 5322 5321 5320 5320 5320 5320 5320 5320 5320 5320 5320 5321 5321 5321 5322 5322 5322 5322 5322 5323 5323 5324 5325 5326
5467 5465 5463 5461 5459 5457 5455 5453 5451 5450 5448 5447 5445 5444 5442 5441 5439 5438 5436 5434 5432 5430 5428 5425 5423 5421 5419 5417 5414 5412 5409 5406 5404 5402 5400 5398 5395 5393 5390 5386 5383 5380 5377 5374 5370 5367 5364 5361 5359 5356 5352 5348 5344 5340 5337 5335 5332 5330 5328 5326 5324 5323 5321 5320 5319 5319 5318 5318 5318 5318 5317 5317 5317 5318 5318 5318 5318 5318 5318 5319 5319 5319 5320 5320 5321 5322
5462 5460 5458 5456 5454 5452 5450 5449 5448 5446 5445 5444 5442 5441 5440 5438 5436 5434 5432 5430 5428 5426 5424 5422 5420 5418 5415 5414 5411 5409 5407 5404 5401 5399 5397 5395 5393 5390 5387 5384 5381 5378 5375 5372 5369 5365 5362 5360 5357 5354 5351 5348 5344 5340 5336 5334 5331 5329 5327 5325 5324 5322 5321 5320 5318 5318 5317 5316 5316 5315 5315 5315 5315 5315 5315 5315 5315 5315 5315 5315 5315 5316 5316 5317 5317 5318
5457 5455 5453 5451 5450 5448 5447 5445 5445 5444 5442 5441 5440 5439 5437 5435 5433 5431 5429 5427 5425 5423 5420 5418 5416 5415 5413 5411 5409 5406 5404 5401 5399 5396 5394 5392 5390 5388 5385 5382 5379 5376 5373 5370 5367 5364 5361 5358 5355 5352 5349 5346 5343 5340 5336 5333 5330 5329 5326 5325 5323 5321 5320 5319 5318 5317 5316 5315 5315 5314 5313 5313 5312 5312 5312 5312 5312 5312 5312 5312 5312 5312 5313 5313 5314 5315
5452 5450 5449 5447 5446 5445 5444 5443 5442 5441 5440 5439 5437 5436 5434 5432 5430 5428 5426 5424 5422 5420 5417 5415 5413 5411 5409 5408 5406 5404 5401 5399 5396 5394 5391 5389 5387 5385 5382 5379 5376 5374 5371 5368 5365 5362 5360 5357 5354 5351 5348 5345 5342 5339 5336 5333 5330 5328 5326 5324 5322 5320 5319 5318 5317 5316 5315 5314 5313 5312 5312 5311 5310 5310 5310 5310 5309 5309 5309 5309 5309 5309 5310 5310 5310 5311
5448 5446 5445 5444 5443 5443 5442 5441 5440 5439 5438 5436 5435 5433 5431 5430 5428 5425 5423 5421 5419 5416 5414 5412 5410 5408 5406 5404 5402 5400 5398 5396 5394 5391 5389 5386 5384 5382 5380 5377 5374 5371 5369 5366 5363 5361 5358 5355 5353 5350 5347 5344 5341 5338 5336 5333 5331 5328 5326 5324 5322 5320 5318 5317 5316 5315 5314 5313 5312 5311 5310 5310 5309 5308 5308 5307 5307 5307 5306 5306 5306 5306 5306 5307 5307 5307
5444 5443 5442 5442 5441 5440 5440 5439 5438 5437 5435 5434 5432 5431 5429 5427 5425 5423 5420 5418 5416 5414 5411 5409 5407 5405 5403 5401 5399 5397 5395 5393 5391 5389 5386 5384 5382 5380 5377 5375 5372 5370 5367 5364 5362 5359 5357 5354 5352 5349 5346 5343 5340 5337 5335 5333 5331 5329 5326 5324 5321 5319 5318 5316 5315 5314 5313 5312 5311 5310 5309 5308 5307 5307 5306 5305 5305 5305 5304 5304 5303 5303 5303 5303 5304 5304
5441 5441 5440 5440 5440 5439 5438 5437 5435 5434 5433 5432 5430 5428 5426 5425 5422 5420 5418 5415 5413 5411 5409 5406 5404 5402 5400 5398 5396 5394 5392 5390 5388 5386 5384 5381 5379 5377 5375 5373 5370 5368 5365 5362 5360 5358 5355 5353 5350 5348 5345 5343 5340 5337 5334 5332 5330 5328 5326 5324 5322 5319 5317 5315 5314 5313 5312 5311 5310 5309 5308 5307 5306 5305 5305 5304 5303 5303 5302 5301 5301 5301 5300 5300 5300 5301
5439 5439 5439 5438 5438 5437 5436 5435 5433 5432 5431 5429 5428 5426 5424 5422 5420 5417 5415 5413 5410 5408 5406 5404 5401 5399 5397 5395 5393 5391 5390 5387 5385 5383 5381 5379 5377 5375 5373 5371 5368 5366 5363 5361 5358 5356 5354 5351 5349 5347 5344 5342 5339 5336 5334 5331 5330 5328 5326 5324 5322 5320 5317 5315 5314 5313 5311 5310 5310 5308 5307 5306 5305 5304 5304 5303 5302 5301 5300 5300 5299 5299 5298 5298 5298 5298
5438 5438 5437 5437 5436 5435 5434 5433 5431 5430 5429 5427 5425 5424 5422 5420 5417 5415 5412 5410 5408 5406 5404 5401 5399 5397 5395 5392 5390 5389 5387 5385 5383 5381 5379 5377 5375 5373 5371 5369 5366 5364 5362 5359 5357 5354 5352 5350 5347 5345 5343 5341 5339 5336 5334 5331 5329 5327 5325 5324 5322 5320 5318 5315 5313 5312 5311 5310 5309 5308 5307 5306 5305 5304 5303 5302 5301 5300 5299 5298 5298 5297 5296 5296 5296 5296
5437 5436 5436 5435 5434 5433 5432 5430 5429 5428 5426 5425 5423 5422 5420 5418 5415 5413 5410 5408 5405 5404 5401 5399 5397 5395 5393 5390 5388 5386 5384 5382 5380 5379 5377 5375 5373 5371 5369 5367 5365 5362 5360 5358 5355 5353 5350 5348 5346 5344 5342 5340 5338 5335 5333 5331 5329 5327 5325 5323 5321 5320 5318 5315 5313 5312 5310 5309 5308 5307 5306 5305 5304 5303 5302 5301 5300 5299 5298 5297 5296 5296 5295 5295 5294 5294
5436 5435 5434 5433 5432 5431 5430 5428 5427 5426 5424 5423 5421 5420 5418 5415 5413 5411 5408 5406 5404 5402 5400 5397 5395 5393 5391 5389 5386 5384 5382 5380 5378 5377 5375 5373 5371 5369 5367 5365 5363 5360 5358 5356 5354 5351 5349 5346 5344 5342 5340 5339 5337 5335 5333 5330 5329 5326 5324 5322 5320 5319 5317 5316 5314 5312 5310 5309 5307 5306 5305 5304 5303 5302 5301 5300 5299 5298 5297 5296 5295 5295 5294 5294 5294 5293
5435 5434 5433 5431 5430 5429 5428 5426 5425 5424 5422 5421 5419 5417 5415 5413 5411 5409 5406 5404 5402 5400 5397 5395 5394 5391 5390 5387 5385 5383 5380 5378 5376 5375 5373 5371 5369 5367 5365 5363 5361 5359 5356 5354 5352 5350 5347 5345 5343 5340 5339 5337 5335 5333 5331 5330 5328 5326 5324 5322 5320 5318 5316 5315 5313 5312 5310 5308 5307 5305 5304 5303 5302 5301 5300 5299 5298 5297 5296 5295 5295 5294 5294 5293 5293 5293
5433 5432 5431 5430 5429 5427 5426 5425 5423 5422 5420 5419 5417 5415 5413 5411 5409 5406 5404 5402 5400 5398 5395 5393 5391 5390 5388 5386 5384 5382 5380 5377 5375 5373 5371 5369 5367 5365 5363 5361 5359 5357 5355 5352 5350 5348 5345 5343 5341 5339 5337 5335 5333 5331 5329 5328 5326 5325 5323 5321 5320 5317 5315 5314 5312 5311 5310 5308 5306 5305 5303 5302 5302 5301 5300 5299 5298 5297 5295 5295 5294 5294 5293 5292 5292 5292
5432 5430 5430 5428 5427 5426 5424 5423 5421 5420 5418 5416 5415 5413 5411 5409 5406 5404 5402 5400 5398 5395 5393 5391 5390 5388 5385 5384 5382 5380 5379 5376 5374 5372 5370 5367 5365 5363 5361 5359 5357 5355 5353 5350 5348 5346 5344 5341 5339 5337 5335 5333 5331 5329 5327 5325 5324 5323 5322 5320 5319 5317 5315 5313 5311 5309 5308 5306 5305 5304 5302 5301 5301 5300 5299 5298 5297 5296 5295 5294 5293 5293 5292 5292 5292 5291
5430 5429 5428 5427 5425 5424 5423 5421 5419 5418 5416 5414 5413 5410 5409 5406 5404 5402 5400 5397 5395 5393 5391 5390 5388 5385 5384 5382 5380 5379 5377 5375 5373 5371 5369 5366 5364 5362 5360 5357 5355 5353 5351 5349 5346 5344 5342 5340 5337 5335 5333 5331 5329 5327 5325 5324 5322 5320 5320 5319 5317 5315 5314 5312 5310 5308 5306 5305 5303 5302 5301 5300 5300 5299 5298 5297 5296 5295 5294 5293 5292 5292 5291 5291 5291 5291
5429 5428 5426 5425 5424 5422 5421 5419 5418 5416 5414 5412 5410 5408 5406 5404 5402 5400 5398 5395 5394 5391 5390 5388 5386 5384 5382 5380 5378 5376 5375 5373 5371 5370 5368 5366 5363 5361 5358 5356 5354 5351 5349 5347 5345 5343 5340 5338 5336 5334 5332 5330 5328 5326 5324 5322 5320 5319 5318 5316 5315 5314 5312 5310 5309 5307 5305 5303 5302 5300 5299 5299 5298 5297 5296 5296 5295 5294 5293 5292 5291 5290 5290 5290 5290 5290
5427 5426 5425 5423 5422 5420 5419 5417 5416 5414 5412 5410 5409 5406 5404 5402 5400 5398 5396 5394 5392 5390 5388 5386 5384 5382 5380 5378 5376 5375 5373 5371 5370 5368 5366 5364 5362 5360 5357 5355 5353 5350 5348 5346 5344 5342 5340 5338 5335 5333 5330 5328 5327 5325 5323 5321 5320 5318 5316 5315 5314 5312 5311 5310 5308 5306 5304 5303 5301 5300 5298 5297 5296 5296 5295 5294 5294 5293 5292 5291 5290 5289 5289 5288 5288 5288
5426 5425 5423 5422 5420 5419 5417 5416 5414 5412 5411 5409 5407 5405 5403 5400 5398 5396 5394 5392 5390 5388 5386 5384 5382 5380 5378 5376 5375 5373 5371 5369 5367 5366 5364 5362 5360 5358 5356 5354 5352 5350 5348 5345 5344 5342 5340 5338 5335 5332 5329 5327 5325 5323 5322 5320 5318 5317 5315 5314 5312 5311 5310 5308 5307 5305 5304 5302 5300 5299 5298 5296 5295 5295 5295 5294 5292 5292 5291 5290 5289 5288 5287 5287 5287 5287
5425 5423 5421 5420 5419 5417 5415 5414 5412 5411 5409 5407 5405 5404 5401 5399 5397 5395 5393 5390 5388 5386 5384 5382 5380 5378 5376 5375 5373 5371 5369 5367 5365 5364 5362 5360 5358 5356 5354 5352 5350 5349 5346 5345 5343 5341 5339 5338 5336 5333 5330 5326 5323 5321 5320 5318 5317 5315 5314 5312 5311 5309 5308 5307 5305 5304 5303 5301 5300 5298 5297 5296 5295 5294 5293 5293 5292 5291 5290 5289 5288 5287 5286 5286 5286 5286